[[{"header":{"parameterUnit":"m.s-1","parameterCategory":1,"la1":30.2991,"la2":30.254,"lo1":-89.0895,"lo2":-89.0444,"dy":0.0017,"dx":0.0017,"nx":28,"ny":28,"refTime":"2024-03-11T21:00:00:Z","depth":0,"parameterNumber":2,"parameterNumberName":"U-component_of_WINDS"},"data":[0,0,0,0,0,0,0,0,0,0,0,0,0,0,0,0,0,0,0,0,0,0,0,0,0,0,0,0,0,0,0,0,0,0,0,0,0,0,0,0,0,0,0,0,0,0,0,0,0,0,0,0,0,0,0,0,0,0,-0.964,-0.964,0,-0.9664,-0.9665,-0.9665,-0.9685,-0.9685,-0.9685,-0.9686,-0.9711,-0.9712,-0.9712,0,0,0,0,0,0,0,0,0,0,0,0,0,-0.961,-0.9611,-0.964,-0.964,-0.964,-0.9664,-0.9665,-0.9665,-0.9685,-0.9685,-0.9685,-0.9686,-0.9711,-0.9712,-0.9712,0,0,0,0,0,0,0,0,0,0,0,0,0,-0.9628,-0.9611,-0.964,-0.9653,-0.9655,-0.9664,-0.9665,-0.9665,-0.9685,-0.9685,-0.9686,-0.9686,-0.9711,-0.9712,-0.9712,-0.9711,0,0,-0.9715,-0.9715,0,0,0,0,0,0,0,0,-0.9627,-0.9629,-0.9651,-0.9652,-0.9654,-0.9672,-0.9664,-0.9681,-0.9685,-0.9673,-0.9686,-0.9686,-0.9698,-0.97,-0.9704,-0.9712,-0.9713,-0.9715,-0.9715,-0.9715,-0.9716,0,0,0,0,0,0,0,-0.9626,-0.9628,-0.965,-0.9651,-0.9653,-0.9658,-0.9661,-0.9667,-0.9684,-0.9674,-0.9676,-0.9679,-0.9699,-0.9703,-0.9705,-0.9714,-0.9715,-0.9715,-0.9716,-0.9716,-0.9721,-0.9721,0,0,0,0,0,0,-0.9622,-0.9627,-0.9649,-0.965,-0.9641,-0.9658,-0.9662,-0.9666,-0.9684,-0.9687,-0.9678,-0.9679,-0.9702,-0.9704,-0.9705,-0.9705,-0.9715,-0.9716,-0.9717,-0.9722,-0.9721,-0.9721,0,0,0,0,0,0,-0.9621,-0.9624,-0.9648,-0.9639,-0.9642,-0.9659,-0.9663,-0.9666,-0.967,-0.9687,-0.969,-0.9679,-0.9702,-0.9704,-0.9709,-0.9706,-0.9716,-0.9717,-0.9722,-0.9721,-0.9721,-0.9703,0,0,0,0,0,0,-0.9621,-0.9624,-0.9623,-0.9639,-0.9643,-0.9651,-0.9663,-0.9666,-0.9672,-0.9673,-0.9688,-0.9691,-0.9702,-0.9708,-0.971,-0.9707,-0.9718,-0.9722,-0.9722,-0.9721,-0.9704,-0.9702,-0.97,0,0,0,0,0,-0.9619,-0.9617,-0.9623,-0.9626,-0.9643,-0.9651,-0.9653,-0.9666,-0.9671,-0.9671,-0.9681,-0.9691,-0.9706,-0.9708,-0.9711,-0.9708,-0.9723,-0.9722,-0.9721,-0.9705,-0.9702,-0.97,0,0,0,0,0,0,-0.9601,-0.962,-0.9626,-0.9629,-0.9638,-0.9654,-0.9654,-0.9663,-0.9671,-0.9672,-0.9687,-0.9691,-0.9694,-0.9701,-0.9704,-0.9707,-0.9715,-0.9715,-0.9702,-0.97,-0.9698,-0.9696,-0.9718,0,0,0,0,0,-0.9597,-0.9602,-0.9618,-0.9619,-0.9623,-0.9638,-0.9642,-0.9651,-0.9661,-0.9665,-0.9676,-0.9685,-0.9692,-0.9697,-0.9704,-0.9705,-0.9708,-0.9704,-0.9702,-0.9701,-0.97,-0.9701,-0.9699,-0.9719,-0.9719,-0.9719,0,0,-0.959,-0.9601,-0.9603,-0.9616,-0.9624,-0.9629,-0.9641,-0.9646,-0.965,-0.9666,-0.9671,-0.9679,-0.9691,-0.9694,-0.9695,-0.97,-0.9696,-0.97,-0.9698,-0.9699,-0.97,-0.9698,-0.9697,-0.9718,-0.9718,-0.9718,0,0,-0.9578,-0.9587,-0.9589,-0.9596,-0.9608,-0.9618,-0.9618,-0.9633,-0.9639,-0.9644,-0.9656,-0.9661,-0.9672,-0.968,-0.9686,-0.9676,-0.9685,-0.9678,-0.9669,-0.9669,-0.9668,-0.9666,-0.9663,-0.9661,-0.9678,-0.9678,-0.9678,0,-0.9568,-0.9575,-0.9588,-0.9592,-0.9598,-0.9612,-0.9614,-0.9621,-0.9634,-0.9638,-0.9643,-0.9657,-0.9666,-0.9671,-0.9668,-0.9672,-0.9673,-0.9677,-0.9667,-0.9666,-0.9665,-0.9661,-0.966,-0.9677,-0.9677,-0.9677,-0.9677,0,-0.9561,-0.9566,-0.9566,-0.9579,-0.9584,-0.9587,-0.96,-0.9604,-0.9612,-0.9621,-0.9626,-0.9637,-0.9647,-0.9648,-0.9657,-0.9654,-0.9656,-0.9664,-0.9673,-0.9662,-0.9659,-0.9658,-0.9675,-0.9676,-0.9676,-0.9676,0,0,-0.954,-0.9559,-0.9558,-0.9564,-0.9578,-0.9582,-0.9585,-0.9594,-0.9597,-0.9606,-0.9609,-0.9618,-0.9625,-0.9631,-0.964,-0.9641,-0.9632,-0.9648,-0.9649,-0.9645,-0.963,-0.9624,-0.9622,-0.9638,-0.9638,-0.9638,-0.9629,0,-0.953,-0.9537,-0.9548,-0.9551,-0.9556,-0.9569,-0.9572,-0.9581,-0.9589,-0.9594,-0.9604,-0.961,-0.9618,-0.9622,-0.9623,-0.9633,-0.963,-0.9634,-0.9641,-0.9641,-0.9638,-0.9621,-0.9615,-0.9606,-0.9628,-0.9627,-0.9627,0,-0.9521,-0.9528,-0.9531,-0.9544,-0.9547,-0.9549,-0.9558,-0.9563,-0.9573,-0.9579,-0.9585,-0.9595,-0.9599,-0.9607,-0.9612,-0.9615,-0.9619,-0.9624,-0.9624,-0.9625,-0.9634,-0.9621,-0.9603,-0.9601,-0.9626,-0.9626,-0.9626,0,-0.9504,-0.9515,-0.9518,-0.9522,-0.9538,-0.9539,-0.9546,-0.9556,-0.9561,-0.9568,-0.9571,-0.958,-0.9584,-0.959,-0.9602,-0.9607,-0.9606,-0.9615,-0.9611,-0.9611,-0.961,-0.961,-0.9592,-0.9613,-0.9613,-0.9613,-0.9613,0,-0.9492,-0.9494,-0.9511,-0.9513,-0.9514,-0.9528,-0.9529,-0.9537,-0.9546,-0.9549,-0.9562,-0.9565,-0.958,-0.9585,-0.9594,-0.9597,-0.9599,-0.9604,-0.9607,-0.9603,-0.9602,-0.9606,-0.9607,-0.9613,-0.9613,-0.9613,-0.9613,0,-0.9475,-0.9486,-0.949,-0.9504,-0.9508,-0.9508,-0.952,-0.9523,-0.9531,-0.9536,-0.9538,-0.9551,-0.9558,-0.957,-0.958,-0.9586,-0.9587,-0.9591,-0.9583,-0.9585,-0.958,-0.958,-0.9563,-0.9562,-0.9583,-0.9583,-0.9583,0,-0.9466,-0.9468,-0.9481,-0.9485,-0.949,-0.9495,-0.95,-0.9513,-0.9517,-0.9528,-0.9529,-0.9536,-0.9543,-0.9552,-0.9563,-0.957,-0.9575,-0.9569,-0.9576,-0.9572,-0.9575,-0.9574,-0.9574,-0.9567,-0.9566,-0.9566,-0.9566,0,-0.9451,-0.9456,-0.9462,-0.947,-0.9474,-0.9481,-0.9488,-0.949,-0.9505,-0.9509,-0.9515,-0.952,-0.953,-0.9537,-0.9546,-0.9553,-0.9562,-0.9563,-0.9563,-0.9559,-0.9554,-0.9557,-0.9578,-0.9564,-0.9564,-0.9564,-0.9564,-0.9564,-0.9437,-0.9439,-0.9449,-0.9455,-0.9461,-0.9468,-0.947,-0.9479,-0.9485,-0.9493,-0.9501,-0.9506,-0.9516,-0.9529,-0.9535,-0.9539,-0.9544,-0.9543,-0.9543,-0.9543,-0.9541,-0.9554,-0.9541,-0.9541,-0.9541,-0.9541,-0.9541,0,-0.9422,-0.9429,-0.9434,-0.9444,-0.9448,-0.9456,-0.9465,-0.9468,-0.9473,-0.9481,-0.9486,-0.9494,-0.95,-0.9511,-0.9519,-0.952,-0.9524,-0.9522,-0.9522,-0.9523,-0.9537,-0.9536,-0.9518,-0.9518,-0.9518,-0.9518,-0.9518,-0.9518,-0.9415,-0.9418,-0.9424,-0.943,-0.9437,-0.9442,-0.9446,-0.9452,-0.9459,-0.9466,-0.9471,-0.9478,-0.9488,-0.9496,-0.9502,-0.9505,-0.9507,-0.9503,-0.9507,-0.952,-0.9522,-0.9524,-0.9524,-0.9503,-0.9503,-0.9493,-0.9493,-0.9493]},{"header":{"parameterUnit":"m.s-1","parameterCategory":1,"la1":30.2991,"la2":30.254,"lo1":-89.0895,"lo2":-89.0444,"dy":0.0017,"dx":0.0017,"nx":28,"ny":28,"refTime":"2024-03-11T21:00:00:Z","depth":0,"parameterNumber":3,"parameterNumberName":"V-component_of_WINDS"},"data":[0,0,0,0,0,0,0,0,0,0,0,0,0,0,0,0,0,0,0,0,0,0,0,0,0,0,0,0,0,0,0,0,0,0,0,0,0,0,0,0,0,0,0,0,0,0,0,0,0,0,0,0,0,0,0,0,0,0,1.343,1.3431,0,1.3539,1.354,1.3542,1.3553,1.3552,1.3551,1.3549,1.366,1.3664,1.3668,0,0,0,0,0,0,0,0,0,0,0,0,0,1.3231,1.3234,1.343,1.3432,1.3433,1.3539,1.354,1.3542,1.3553,1.3552,1.355,1.3549,1.3659,1.3664,1.3668,0,0,0,0,0,0,0,0,0,0,0,0,0,1.3326,1.3235,1.343,1.3451,1.3454,1.3539,1.354,1.3542,1.3553,1.3552,1.355,1.3548,1.3657,1.3663,1.3669,1.3739,0,0,1.3687,1.369,0,0,0,0,0,0,0,0,1.3321,1.3333,1.3447,1.345,1.3453,1.3531,1.3511,1.3608,1.3554,1.3516,1.3549,1.3548,1.3618,1.3627,1.3652,1.3745,1.3749,1.3688,1.3691,1.3694,1.3696,0,0,0,0,0,0,0,1.3314,1.3329,1.3473,1.3448,1.3452,1.3455,1.3467,1.3529,1.3575,1.3519,1.352,1.3533,1.362,1.3646,1.3654,1.3751,1.3688,1.3693,1.3697,1.3699,1.3907,1.3909,0,0,0,0,0,0,1.3304,1.3323,1.347,1.3477,1.3382,1.346,1.3473,1.3508,1.3574,1.3583,1.3534,1.3533,1.3636,1.3647,1.3658,1.3745,1.3694,1.37,1.3703,1.3905,1.3907,1.3909,0,0,0,0,0,0,1.3299,1.3317,1.3465,1.34,1.3419,1.3465,1.3504,1.3511,1.3536,1.3586,1.3594,1.3552,1.3635,1.365,1.3719,1.3749,1.3702,1.3708,1.3903,1.3906,1.3908,1.3919,0,0,0,0,0,0,1.3294,1.3315,1.3343,1.3401,1.3423,1.3525,1.3506,1.3514,1.3547,1.3546,1.3605,1.3613,1.3635,1.371,1.3725,1.3756,1.3712,1.39,1.3904,1.3907,1.3916,1.3922,1.3927,0,0,0,0,0,1.3286,1.3341,1.3344,1.3362,1.3458,1.3527,1.3539,1.3564,1.3549,1.3577,1.3609,1.3611,1.3743,1.3717,1.3734,1.3767,1.3898,1.3903,1.3907,1.3914,1.3921,1.3926,0,0,0,0,0,0,1.3285,1.3349,1.3353,1.3428,1.3472,1.3528,1.3564,1.357,1.3619,1.3616,1.3645,1.3658,1.3726,1.3754,1.3724,1.3839,1.3819,1.3827,1.3818,1.3825,1.3831,1.3822,1.3717,0,0,0,0,0,1.3294,1.3344,1.3397,1.3458,1.348,1.3518,1.3549,1.3564,1.3611,1.3629,1.3666,1.371,1.3762,1.3795,1.3845,1.392,1.3933,1.3951,1.3956,1.396,1.3967,1.4008,1.4017,1.3924,1.3924,1.3923,0,0,1.3312,1.3353,1.3383,1.3459,1.3495,1.3546,1.3534,1.3589,1.3627,1.3637,1.3705,1.3733,1.3785,1.3857,1.3891,1.3882,1.3996,1.3966,1.3969,1.3973,1.4014,1.4022,1.403,1.3927,1.3926,1.3926,0,0,1.3371,1.3407,1.3462,1.3498,1.3552,1.3577,1.359,1.3646,1.3665,1.3734,1.3742,1.3788,1.3876,1.3912,1.3942,1.4014,1.4018,1.403,1.4057,1.4097,1.4105,1.4111,1.4137,1.4146,1.4036,1.4036,1.4036,0,1.3387,1.3464,1.3489,1.3544,1.3577,1.3589,1.3644,1.3678,1.3745,1.3768,1.3757,1.3868,1.3903,1.3984,1.4002,1.4026,1.4041,1.4023,1.4102,1.4108,1.4115,1.414,1.4149,1.4037,1.4037,1.4037,1.4037,0,1.3481,1.3535,1.3572,1.3637,1.3675,1.3729,1.3762,1.3797,1.3809,1.3834,1.3904,1.3947,1.4005,1.4026,1.4038,1.4108,1.4101,1.4096,1.4077,1.4125,1.4148,1.4158,1.4039,1.4038,1.4038,1.4038,0,0,1.3543,1.3621,1.3634,1.3663,1.3724,1.3766,1.382,1.3878,1.3907,1.3953,1.4,1.4074,1.4069,1.4103,1.4119,1.4154,1.4208,1.4144,1.4146,1.4155,1.4288,1.4292,1.4302,1.4211,1.4213,1.4214,1.4284,0,1.3609,1.3708,1.3731,1.3815,1.3865,1.3877,1.3924,1.3966,1.3992,1.4037,1.4065,1.4117,1.4107,1.4128,1.4163,1.4194,1.4235,1.4189,1.4254,1.4256,1.4241,1.4315,1.4319,1.4383,1.4293,1.4295,1.4296,0,1.3699,1.3747,1.3836,1.3889,1.3911,1.3954,1.4008,1.4052,1.4099,1.4115,1.4153,1.4165,1.4223,1.42,1.4279,1.4248,1.4275,1.4295,1.4298,1.4305,1.4279,1.4324,1.4403,1.4413,1.4311,1.431,1.4308,0,1.3736,1.3822,1.3887,1.3912,1.3975,1.4005,1.4033,1.4078,1.4111,1.4159,1.418,1.4234,1.4263,1.4304,1.433,1.4312,1.4407,1.4387,1.4422,1.4421,1.4442,1.444,1.4527,1.4459,1.4459,1.4459,1.4459,0,1.3807,1.3861,1.3904,1.3943,1.4004,1.4031,1.409,1.4118,1.4158,1.4203,1.4216,1.4258,1.429,1.4336,1.4357,1.4419,1.4433,1.4447,1.4452,1.4446,1.4444,1.4465,1.4461,1.4462,1.4461,1.446,1.446,0,1.3858,1.3889,1.396,1.4014,1.4029,1.4071,1.4117,1.4156,1.4181,1.4238,1.4253,1.4293,1.4348,1.4378,1.4447,1.4461,1.4531,1.4533,1.4515,1.4517,1.455,1.4547,1.4653,1.4669,1.4591,1.4592,1.4592,0,1.3901,1.3943,1.4002,1.4033,1.4061,1.4111,1.4145,1.4172,1.4206,1.4263,1.4295,1.4351,1.4397,1.4484,1.4519,1.4572,1.4576,1.461,1.4584,1.4577,1.4577,1.4574,1.4578,1.4614,1.4615,1.4615,1.4616,0,1.3975,1.3988,1.4037,1.409,1.4129,1.4173,1.4216,1.424,1.4275,1.4313,1.4369,1.4405,1.4475,1.453,1.4586,1.4614,1.4621,1.4624,1.4635,1.4629,1.4617,1.4624,1.4527,1.4621,1.4621,1.462,1.462,1.462,1.4024,1.4062,1.4109,1.4162,1.4196,1.4236,1.4275,1.4305,1.4353,1.4412,1.4425,1.4485,1.4531,1.4606,1.4635,1.4682,1.4676,1.4691,1.4695,1.4699,1.47,1.4609,1.4692,1.4692,1.4692,1.4692,1.4692,0,1.4099,1.4129,1.4178,1.4237,1.4279,1.4281,1.4329,1.4363,1.4415,1.4457,1.4502,1.4567,1.462,1.4659,1.4714,1.4744,1.4748,1.4757,1.4755,1.4761,1.4703,1.4688,1.4752,1.4752,1.4752,1.4752,1.4752,1.4752,1.4143,1.4206,1.4225,1.4305,1.4335,1.4394,1.4421,1.4457,1.4491,1.4562,1.4607,1.4632,1.4673,1.473,1.4779,1.4789,1.4808,1.4817,1.4827,1.4772,1.4766,1.4759,1.4746,1.4821,1.4821,1.4882,1.4883,1.4883]}]]